Probability
0 0 0 0 0 0 0 0 0 0 0 0 0 0 0 0 0 0 0 0 0 0 0 0 0 0 0 0 0 0 0 0 0 0 0 0 0 0 0 0 0 0 0 0 0 0 0 0 0
0 0 0 0 0 0 0 0 0 0 0 0 0 0 0 0 0 0 0 0 0 0 0 0 0 0 0 0 0 0 0 0 0 0 0 0 0 0 0 0 0 0 0 0 0 0 0 0 0
0 0 0 0 0 0 0 0 0 0 0 0 0 0 0 0 0 0 0 0 0 0 0 0 0 0 0 0 0 0 0 0 0 0 0 0 0 0 0 0 0 0 0 0 0 0 0 0 0
0 0 0 0 0 0 0 0 0 0 0 0 0 0 0 0 0 0 0 0 0 0 0 0 0 0 0 0 0 0 0 0 0 0 0 0 0 0 0 0 0 0 0 0 0 0 0 0 0
0 0 0 0 0 0 0 0 0 0 0 0 0 0 0 0 0 0 0 0 0 0 0 0 0 0 0 0 0 0 0 0 0 0 0 0 0 0 0 0 0 0 0 0 0 0 0 0 0
0 0 0 0 0 0 0 0 0 0 0 0 0 0 0 0 0 0 0 0 0 0 0 0 0 0 0 0 0 0 0 0 0 0 0 0 0 0 0 0 0 0 0 0 0 0 0 0 0
0 0 0 0 0 0 0 0 0 0 0 0 0 0 0 0 0 0 0 0 0 0 0 0 0 0 0 0 0 0 0 0 0 0 0 0 0 0 0 0 0 0 0 0 0 0 0 0 0
0 0 0 0 0 0 0 0 0 0 0 0 0 0 0 0 0 0 0 0 0 0 0 0 0 0 0 0 0 0 0 0 0 0 0 0 0 0 0 0 0 0 0 0 0 0 0 0 0
0 0 0 0 0 0 0 0 0 0 0 0 0 0 0 0 0 0 0 0 0 0 0 0 0 0 0 0 0 0 0 0 0 0 0 0 0 0 0 0 0 0 0 0 0 0 0 0 0
0 0 0 0 0 0 0 0 0 0 0 0 0 0 0 0 0 0 0 0 0 0 0 0 0 0 0 0 0 0 0 0 0 0 0 0 0 0 0 0 0 0 0 0 0 0 0 0 0
0 0 0 0 0 0 0 0 0 0 0 0 0 0 0 0 0 0 0 0 0 0 0 0 0 0 0 0 0 0 0 0 0 0 0 0 0 0 0 0 0 0 0 0 0 0 0 0 0
0 0 0 0 0 0 0 0 0 0 0 0 0 0 0 0 0 0 0 0 0 0 0 0 0 0 0 0 0 0 0 0 0 0 0 0 0 0 0 0 0 0 0 0 0 0 0 0 0
0 0 0 0 0 0 0 0 0 0 0 0 0 0 0 0 0 0 0 0 0 0 0 0 0 0 0 0 0 0 0 0 0 0 0 0 0 0 0 0 0 0 0 0 0 0 0 0 0
0 0 0 0 0 0 0 0 0 0 0 0 0 0 0 0 0 0 0 0 0 0 0 0 0 0 0 0 0 0 0 0 0 0 0 0 0 0 0 0 0 0 0 0 0 0 0 0 0
0 0 0 0 0 0 0 0 0 0 0 0 0 0 0 0 0 0 0 0 0 0 0 0 0 0 0 0 0 0 0 0 0 0 0 0 0 0 0 0 0 0 0 0 0 0 0 0 0
0 0 0 0 0 0 0 0 0 0 0 0 0 0 0 0 0 0 0 0 0 0 0 0 0 0 0 0 0 0 0 0 0 0 0 0 0 0 0 0 0 0 0 0 0 0 0 0 0
0 0 0 0 0 0 0 0 0 0 0 0 0 0 0 0 0 0 0 0 0 0 0 0 0 0 0 0 0 0 0 0 0 0 0 0 0 0 0 0 0 0 0 0 0 0 0 0 0
0 0 0 0 0 0 0 0 0 0 0 0 0 0 0 0 0 0 0 0 0 0 0 0 0 0 0 0 0 0 0 0 0 0 0 0 0 0 0 0 0 0 0 0 0 0 0 0 0
0 0 0 0 0 0 0 0 0 0 0 0 0 0 0 0 0 0 0 0 0 0 0 0 0 0 0 0 0 0 0 0 0 0 0 0 0 0 0 0 0 0 0 0 0 0 0 0 0
0 0 0 0 0 0 0 0 0 0 0 0 0 0 0 0 0 0 0 0 0 0 0 0 0 0 0 0 0 0 0 0 0 0 0 0 0 0 0 0 0 0 0 0 0 0 0 0 0
0 0 0 0 0 0 0 0 0 0 0 0 0 0 0 0 0 0 0 0 0 0 0 0 0 0 0 0 0 0 0 0 0 0 0 0 0 0 0 0 0 0 0 0 0 0 0 0 0
0 0 0 0 0 0 0 0 0 0 0 0 0 0 0 0 0 0 0 0 0 0 0 0 0 0 0 0 0 0 0 0 0 0 0 0 0 0 0 0 0 0 0 0 0 0 0 0 0
0 0 0 0 0 0 0 0 0 0 0 0 0 0 0 0 0 0 0 0 0 0 0 0 0 0 0 0 0 0 0 0 0 0 0 0 0 0 0 0 0 0 0 0 0 0 0 0 0
0 0 0 0 0 0 0 0 0 0 0 0 0 0 0 0 0 0 0 0 0 0 0 0 0 0 0 0 0 0 0 0 0 0 0 0 0 0 0 0 0 0 0 0 0 0 0 0 0
0 0 0 0 0 0 0 0 0 0 0 0 0 0 0 0 0 0 0 0 0 0 0 0 0 0 0 0 0 0 0 0 0 0 0 0 0 0 0 0 0 0 0 0 0 0 0 0 0
0 0 0 0 0 0 0 0 0 0 0 0 0 0 0 0 0 0 0 0 0 0 0 0 0 0 0 0 0 0 0 0 0 0 0 0 0 0 0 0 0 0 0 0 0 0 0 0 0
0 0 0 0 0 0 0 0 0 0 0 0 0 0 0 0 0 0 0 0 0 0 0 0 0 0 0 0 0 0 0 0 0 0 0 0 0 0 0 0 0 0 0 0 0 0 0 0 0
0 0 0 0 0 0 0 0 0 0 0 0 0 0 0 0 0 0 0 0 0 0 0 0 0 0 0 0 0 0 0 0 0 0 0 0 0 0 0 0 0 0 0 0 0 0 0 0 0
0 0 0 0 0 0 0 0 0 0 0 0 0 0 0 0 0 0 0 0 0 0 0 0 0 0 0 0 0 0 0 0 0 0 0 0 0 0 0 0 0 0 0 0 0 0 0 0 0
0 0 0 0 0 0 0 0 0 0 0 0 0 0 0 0 0 0 0 0 0 0 0 0 0 0 0 0 0 0 0 0 0 0 0 0 0 0 0 0 0 0 0 0 0 0 0 0 0
Wind_Speed
8 4 3 4 6 5 2 5 3 5 5 4 2 1 2 2 2 4 1 6 4 5 8 10 13 14 14 13 12 10 8 7 7 6 5 5 4 3 1 1 2 2 2 3 4 3 3 3 4
3 3 5 6 5 1 5 5 4 4 5 5 2 1 1 2 2 2 1 6 5 7 8 7 12 14 14 13 11 10 8 8 7 6 6 6 4 2 1 2 3 3 3 4 5 5 3 1 3
3 6 5 5 3 4 4 2 4 7 8 4 2 1 2 3 2 2 3 7 6 7 7 8 13 14 14 13 11 10 9 8 7 6 6 6 5 3 2 3 4 4 3 5 6 6 5 3 2
4 5 6 5 2 4 5 5 6 9 8 3 2 3 3 3 2 2 5 8 8 7 7 8 13 14 14 13 11 10 9 9 8 7 6 6 5 4 4 3 4 4 5 6 6 7 7 6 5
5 5 5 2 4 5 5 6 5 4 5 4 2 3 4 1 0 4 7 8 9 7 6 7 14 15 14 13 12 11 11 10 9 8 7 6 6 5 5 5 5 6 7 7 7 8 9 8 8
5 5 3 3 5 6 6 5 5 4 5 5 2 3 4 1 2 4 7 7 8 8 7 6 14 13 14 14 13 12 11 11 10 9 8 7 7 6 7 6 7 8 8 9 9 9 10 11 11
4 4 2 3 4 6 4 4 4 5 5 4 2 3 5 2 1 5 6 6 5 5 6 5 6 8 11 12 12 12 11 11 10 10 9 7 6 7 8 7 8 9 10 10 10 10 11 11 12
5 4 2 2 3 6 4 6 4 3 6 5 2 2 4 4 3 5 4 4 4 4 5 5 5 5 5 7 11 11 10 10 9 9 8 7 6 7 8 7 8 10 11 11 11 12 12 12 12
4 4 3 5 5 6 4 5 6 3 5 5 3 2 3 2 5 4 3 3 4 5 5 5 5 5 5 5 6 8 9 9 8 7 8 7 4 4 4 6 7 10 12 12 13 13 13 12 11
5 4 8 6 5 4 4 4 5 7 8 5 3 2 2 1 4 5 6 7 8 7 6 6 6 6 5 5 4 3 4 4 4 3 4 3 3 3 4 6 8 11 11 12 14 15 13 9 4
6 7 5 5 5 4 4 5 3 4 7 5 7 9 4 3 5 7 8 7 6 5 5 8 8 6 6 4 3 3 2 3 4 4 5 3 3 2 3 2 3 4 6 5 7 8 4 4 4
5 6 5 4 2 2 4 5 5 6 11 10 8 7 6 6 9 10 9 5 3 4 6 6 7 6 6 5 4 3 3 3 4 5 5 4 3 3 3 2 3 3 3 4 4 4 6 6 6
4 4 4 5 6 5 6 7 7 9 13 11 8 8 8 8 9 7 4 3 3 5 6 7 7 8 6 5 5 5 5 5 5 4 5 5 4 4 4 3 3 4 4 5 5 6 7 7 7
7 6 6 6 6 4 6 10 6 12 9 8 8 9 8 7 6 4 4 5 5 6 7 7 9 10 8 7 7 6 5 5 4 4 6 6 5 5 4 4 4 5 5 6 6 7 7 7 6
4 2 6 6 5 4 3 11 9 9 5 7 7 7 6 5 4 3 4 5 5 6 6 8 10 10 11 11 10 7 6 5 5 5 5 6 6 5 5 4 5 6 5 6 6 6 6 7 7
5 2 5 6 3 4 3 15 13 4 3 4 5 4 4 6 7 6 6 5 6 5 5 6 7 8 10 10 8 6 5 5 5 4 4 5 6 6 5 5 7 6 4 5 5 6 6 8 8
4 4 4 7 4 2 4 12 10 2 2 3 2 3 4 6 8 8 8 7 6 6 5 5 3 5 7 8 6 5 3 4 3 2 2 3 5 5 5 6 7 5 4 5 6 6 6 8 9
6 4 4 6 4 1 6 13 17 4 1 1 0 2 4 6 7 7 8 7 7 7 7 7 6 4 1 2 2 1 0 1 1 1 2 4 4 5 5 5 7 6 5 6 6 9 8 9 10
7 6 6 7 4 3 9 14 17 8 2 3 3 1 3 5 5 7 8 8 8 9 10 9 9 8 4 3 3 2 2 2 2 3 3 3 3 3 2 3 5 5 5 7 7 7 9 9 7
5 4 4 6 2 3 7 11 11 6 4 5 6 4 3 4 6 8 8 9 9 9 9 10 10 10 7 4 3 3 4 5 4 6 8 9 9 8 7 6 5 5 5 6 6 6 6 6 5
5 6 5 5 8 5 5 9 7 4 1 4 5 5 4 5 5 5 6 7 8 9 9 9 11 12 11 8 6 6 5 5 6 7 6 8 8 9 8 8 6 6 5 5 6 6 7 7 5
7 6 4 3 3 5 3 7 9 5 2 3 5 5 5 4 4 4 5 6 7 7 7 9 11 13 12 10 11 12 9 7 5 4 4 6 8 8 9 8 8 7 6 6 7 7 6 7 7
5 4 5 3 3 4 3 4 11 3 5 6 6 6 5 5 5 5 5 6 6 6 7 8 10 12 11 11 10 10 8 5 3 4 6 7 7 7 9 8 8 7 6 7 7 7 7 5 5
5 5 4 4 3 4 6 6 10 6 8 6 7 7 7 6 5 5 5 6 6 6 7 7 11 11 9 10 10 10 9 7 7 7 7 6 5 5 9 8 7 7 6 7 7 7 7 6 6
5 5 1 1 1 7 3 5 12 7 5 7 12 11 8 7 6 6 6 6 6 6 6 7 10 9 8 9 9 8 8 8 8 6 6 6 5 5 8 8 8 7 8 7 7 7 8 7 8
8 8 7 7 5 5 2 7 11 4 5 5 9 11 9 7 6 6 6 6 6 6 6 7 8 8 7 8 8 7 7 5 5 6 5 6 5 5 8 8 8 9 9 9 8 7 8 7 7
9 7 5 4 1 3 6 8 11 1 5 3 9 10 10 8 7 6 6 5 6 6 5 6 7 7 7 7 7 8 7 7 6 6 5 4 5 6 7 8 8 8 9 9 9 7 8 8 7
9 11 6 5 3 4 6 5 5 6 3 2 7 10 8 7 7 6 5 5 5 5 5 6 7 7 7 7 7 7 6 6 6 5 6 6 6 6 7 7 8 8 8 9 9 8 8 8 8
6 5 6 6 5 4 4 7 5 6 6 6 7 6 8 8 8 6 6 6 5 5 5 6 7 7 7 7 6 6 6 6 5 5 5 6 6 7 7 7 8 9 9 9 10 9 10 10 10
8 10 9 7 5 5 3 8 5 6 5 5 7 6 6 7 6 7 7 6 6 6 6 6 6 6 6 5 6 5 5 5 5 5 6 6 6 6 7 7 8 8 9 9 10 10 10 11 10
Wind_Direction
343 14 62 52 53 52 245 249 248 290 288 286 297 259 235 221 219 259 304 153 162 151 168 191 181 173 167 163 158 159 169 181 192 191 170 167 159 150 141 275 283 282 295 300 307 286 257 227 174
348 28 52 56 84 91 263 250 253 255 263 300 291 287 278 256 240 263 206 180 170 159 165 180 181 175 171 164 160 167 178 190 196 196 184 180 166 160 196 265 276 274 279 290 304 307 275 210 165
49 50 72 69 114 191 246 266 270 288 279 258 268 269 251 244 224 227 206 164 150 157 161 173 181 178 174 167 168 176 188 196 199 204 200 195 177 175 226 257 272 271 266 272 280 293 279 260 261
55 42 55 69 249 237 249 279 290 305 310 261 218 272 254 232 215 202 147 146 146 158 159 174 182 181 177 173 176 185 195 199 202 210 214 210 196 201 229 250 261 262 262 262 266 268 272 260 263
56 67 49 3 274 267 265 272 291 299 288 286 215 258 264 223 164 137 146 151 155 161 167 180 186 184 182 182 185 193 199 201 204 211 216 214 216 224 228 241 252 250 250 253 258 257 258 261 262
54 63 72 286 279 283 274 266 306 296 281 283 230 250 263 354 136 162 160 161 163 165 172 183 191 189 189 191 193 198 203 206 211 215 213 218 229 231 231 237 247 252 251 251 255 260 260 261 263
104 106 182 238 278 287 266 308 304 299 291 274 231 235 287 303 176 155 162 155 161 168 173 186 194 193 193 195 199 203 208 213 217 220 218 220 235 244 249 251 250 257 259 257 256 259 264 266 267
123 115 185 235 247 267 288 320 292 282 281 285 202 223 297 329 120 127 148 156 166 178 188 190 194 191 192 197 203 207 213 220 225 228 223 218 222 238 251 261 258 263 269 268 264 264 268 272 274
98 98 214 224 218 253 301 330 304 284 288 288 237 242 284 315 114 119 136 178 194 197 199 196 197 195 192 194 207 212 218 224 227 237 233 220 219 235 253 260 259 262 271 277 277 273 274 278 279
117 172 223 220 206 244 298 295 292 319 326 309 305 284 340 140 163 186 198 203 204 200 199 199 201 200 195 202 201 208 212 222 224 221 231 219 214 229 242 261 268 272 277 282 284 281 281 285 287
163 198 231 245 233 250 282 282 273 296 294 269 288 306 318 218 217 223 227 222 215 202 202 205 206 202 197 202 198 205 209 216 225 223 220 219 222 240 256 276 294 295 291 283 282 286 283 276 264
176 232 230 255 244 251 265 281 279 231 242 259 275 296 290 244 230 228 233 236 219 206 213 209 206 203 205 203 207 210 211 213 219 220 216 210 218 228 232 232 240 246 248 253 254 253 254 254 252
196 248 241 245 268 261 266 258 256 253 253 273 294 294 278 259 246 248 269 282 237 227 226 216 205 206 205 206 214 216 219 220 219 219 218 211 216 226 226 229 227 231 231 236 243 246 250 251 252
206 230 269 289 288 276 261 270 253 259 262 291 304 302 298 278 271 272 272 266 254 242 231 216 210 208 203 208 214 219 219 222 218 220 224 218 222 228 232 239 238 237 233 236 239 241 247 252 251
168 240 299 285 273 266 272 286 246 258 284 296 312 324 341 1 6 342 321 295 279 265 248 225 218 209 206 212 216 220 217 215 221 224 223 222 224 230 236 246 248 244 235 237 243 247 248 257 253
143 184 268 284 282 267 209 270 278 296 277 306 339 2 29 34 33 18 5 352 337 320 297 261 238 212 210 214 213 218 211 214 227 228 230 232 235 236 240 251 259 254 239 238 245 250 251 256 256
149 186 228 283 266 253 215 262 282 22 2 326 345 17 34 30 20 9 4 0 354 352 346 336 286 237 215 212 212 214 209 219 236 245 252 250 245 241 241 257 268 270 257 251 255 258 245 263 266
176 180 213 244 278 260 253 263 278 280 291 282 82 47 42 40 16 1 6 6 8 12 17 19 15 354 260 189 179 177 225 299 317 292 274 264 255 250 244 259 271 277 273 270 261 265 263 264 271
157 172 220 250 264 282 264 268 276 284 240 209 177 135 63 43 14 15 18 17 22 24 25 24 29 19 35 70 86 87 50 26 24 16 6 358 350 335 312 301 301 300 287 286 283 278 277 275 272
146 174 238 280 285 245 277 277 271 263 225 191 171 156 111 73 39 25 24 26 30 28 25 33 36 34 38 58 74 83 82 58 52 47 45 39 38 32 31 18 3 350 336 328 320 308 293 285 268
180 192 222 271 330 328 313 300 296 298 123 123 129 129 121 108 87 52 39 36 35 33 28 42 43 43 42 49 63 63 57 49 39 32 32 29 35 34 29 23 15 5 2 349 338 335 319 309 299
215 206 211 268 330 299 349 305 291 282 225 162 139 133 135 124 107 86 66 53 43 35 35 48 51 50 46 51 65 70 70 63 37 26 25 23 27 28 22 17 11 5 0 354 347 348 334 326 322
183 172 189 222 222 277 287 260 280 287 237 214 182 168 165 152 131 107 85 74 58 47 50 55 61 57 53 58 65 73 71 67 49 34 29 22 16 20 16 11 6 0 354 346 342 340 336 329 322
121 89 75 53 87 272 233 207 277 245 220 201 178 177 177 165 143 116 95 85 70 59 59 63 70 62 56 62 63 69 69 57 46 33 24 14 5 7 11 5 0 353 348 341 337 330 327 321 319
130 120 102 296 268 251 237 213 252 254 230 196 176 176 178 171 153 134 113 95 84 73 69 71 77 68 58 62 59 58 60 55 48 32 20 13 4 358 359 358 353 350 343 337 335 328 324 318 322
172 162 171 191 222 274 233 236 255 280 290 229 166 159 161 168 162 147 132 116 102 91 82 80 80 73 62 63 59 52 50 50 41 29 19 12 360 348 353 351 348 344 341 341 336 327 322 321 318
160 190 173 135 218 270 269 275 299 299 17 106 145 152 165 171 167 155 137 121 113 102 89 87 86 76 63 62 64 52 45 41 33 22 15 6 356 352 351 345 342 338 336 336 333 326 321 322 319
158 150 136 164 200 258 287 280 273 314 329 169 171 170 169 164 163 153 137 125 115 105 92 78 77 75 65 58 57 57 42 34 24 18 10 359 349 344 339 339 336 333 331 332 329 324 321 326 321
130 147 151 153 165 174 278 282 247 274 272 213 196 181 167 165 165 153 137 126 115 97 83 73 67 65 59 59 58 49 36 25 18 12 359 347 340 337 337 335 333 332 332 330 326 322 326 324 319
156 165 149 159 202 176 186 271 296 296 278 182 166 165 161 162 156 144 135 125 110 94 78 68 62 60 58 61 57 45 28 17 9 358 348 343 339 334 333 329 328 329 330 324 319 318 324 317 316